CW0351 Weather Reports


Display with metric or nautical units.
time (UTC)temp
F
wind
direction
speed
MPH
gust
MPH
rain 1hr
in
rain 24hr
in
rain mn
in
humidity
%
barometer
mb
20240719121552 68 0 1.0 9.0 0.00 0.00 0.00 69 1021.0
20240719120053 67 12 2.0 7.0 0.00 0.00 0.00 69 1020.8
20240719114617 67 0 1.0 4.0 0.00 0.00 0.00 71 1020.7
20240719113049 66 0 0.0 3.0 0.00 0.00 0.00 72 1020.4
20240719111556 64 0 1.0 4.0 0.00 0.00 0.00 74 1020.3
20240719110057 63 0 0.0 0.0 0.00 0.00 0.00 77 1020.2
20240719104551 62 0 0.0 1.0 0.00 0.00 0.00 78 1020.1
20240719103050 61 0 0.0 0.0 0.00 0.00 0.00 80 1019.9
20240719101551 61 0 0.0 3.0 0.00 0.00 0.00 79 1019.5
20240719100053 62 0 0.0 0.0 0.00 0.00 0.00 80 1019.4
20240719094551 62 0 0.0 0.0 0.00 0.00 0.00 77 1019.3
20240719093049 62 0 0.0 0.0 0.00 0.00 0.00 77 1018.9
20240719091554 63 0 0.0 1.0 0.00 0.00 0.00 76 1018.8
20240719090051 63 0 0.0 0.0 0.00 0.00 0.00 76 1018.6
20240719084607 63 0 0.0 0.0 0.00 0.00 0.00 76 1018.5
20240719083053 63 73 0.0 0.0 0.00 0.00 0.00 77 1018.4
20240719081552 63 0 0.0 0.0 0.00 0.00 0.00 78 1018.2
20240719080119 63 0 0.0 3.0 0.00 0.00 0.00 78 1018.2
20240719074554 64 0 0.0 3.0 0.00 0.00 0.00 79 1018.1
20240719073049 64 0 0.0 0.0 0.00 0.00 0.00 80 1017.9
20240719071551 64 0 0.0 0.0 0.00 0.00 0.00 78 1017.8
20240719070057 65 0 0.0 0.0 0.00 0.00 0.00 77 1017.8
20240719064552 65 0 0.0 0.0 0.00 0.00 0.00 76 1017.8
20240719063056 66 0 0.0 0.0 0.00 0.00 0.00 76 1018.0
20240719061552 66 0 0.0 4.0 0.00 0.00 0.00 75 1018.0
20240719060054 66 0 0.0 2.0 0.00 0.00 0.00 74 1018.0
20240719054548 67 0 0.0 0.0 0.00 0.00 0.00 73 1017.9
20240719053056 68 0 0.0 0.0 0.00 0.00 0.00 72 1017.8
20240719051550 68 0 0.0 3.0 0.00 0.00 0.00 72 1017.7
20240719050054 69 0 0.0 5.0 0.00 0.00 0.00 69 1017.5
20240719044552 69 0 0.0 0.0 0.00 0.00 0.00 68 1017.6
20240719043050 70 0 0.0 4.0 0.00 0.00 0.00 67 1017.4
20240719041549 70 0 0.0 4.0 0.00 0.00 0.00 67 1017.3
20240719040054 71 0 0.0 4.0 0.00 0.00 0.00 67 1017.2
20240719034549 71 0 0.0 3.0 0.00 0.00 0.00 66 1017.2
20240719033051 72 0 0.0 3.0 0.00 0.00 0.00 66 1017.0
20240719031557 72 0 0.0 6.0 0.00 0.00 0.00 65 1016.9
20240719030052 70 0 0.0 0.0 0.00 0.00 0.00 70 1016.7
20240719024556 70 0 0.0 0.0 0.00 0.00 0.00 77 1016.7
20240719023051 71 0 0.0 0.0 0.00 0.00 0.00 77 1016.7
20240719021556 72 0 0.0 0.0 0.00 0.00 0.00 77 1016.6
20240719020050 72 0 0.0 0.0 0.00 0.00 0.00 75 1016.6
20240719014551 72 0 0.0 0.0 0.00 0.00 0.00 74 1016.5
20240719013054 73 0 0.0 0.0 0.00 0.00 0.00 72 1016.2
20240719011559 74 0 0.0 0.0 0.00 0.00 0.00 72 1016.1
20240719010124 75 0 0.0 0.0 0.00 0.00 0.00 72 1015.9
20240719004604 75 0 0.0 0.0 0.00 0.00 0.00 72 1015.6
20240719003054 76 0 0.0 0.0 0.00 0.00 0.00 70 1015.5
20240719001551 77 0 0.0 0.0 0.00 0.00 0.00 67 1015.1
20240719000111 77 0 0.0 0.0 0.00 0.00 0.00 66 1014.9
20240718234554 78 0 0.0 0.0 0.00 0.00 0.00 64 1014.6
20240718233052 78 0 0.0 0.0 0.00 0.00 0.00 63 1014.5
20240718231603 79 0 0.0 0.0 0.00 0.00 0.00 62 1014.5
20240718230051 80 0 0.0 0.0 0.00 0.00 0.00 61 1014.3
20240718224553 80 0 0.0 1.0 0.00 0.00 0.00 56 1014.2
20240718223056 81 0 0.0 4.0 0.00 0.00 0.00 59 1014.2
20240718221554 82 0 0.0 0.0 0.00 0.00 0.00 53 1014.3
20240718220051 83 0 0.0 7.0 0.00 0.00 0.00 51 1014.3
20240718214601 83 0 0.0 3.0 0.00 0.00 0.00 55 1014.4
20240718213050 83 0 0.0 6.0 0.00 0.00 0.00 52 1014.5
20240718211608 82 0 0.0 2.0 0.00 0.00 0.00 59 1014.5
20240718210050 80 0 0.0 2.0 0.00 0.00 0.00 59 1014.4
20240718204549 80 0 0.0 5.0 0.00 0.00 0.00 60 1014.6
20240718203053 81 0 0.0 1.0 0.00 0.00 0.00 58 1014.6
20240718201547 81 0 0.0 4.0 0.00 0.00 0.00 56 1014.8
20240718200054 81 0 0.0 3.0 0.00 0.00 0.00 59 1014.9
20240718194552 81 0 0.0 4.0 0.00 0.00 0.00 58 1014.8
20240718193049 81 0 0.0 6.0 0.00 0.00 0.00 58 1014.7
20240718191551 81 0 0.0 5.0 0.00 0.00 0.00 57 1015.0
20240718190054 81 0 0.0 6.0 0.00 0.00 0.00 55 1014.9
20240718184604 81 0 0.0 5.0 0.00 0.00 0.00 59 1014.9
20240718183100 81 333 0.0 3.0 0.00 0.00 0.00 59 1014.8
20240718181552 81 63 0.0 5.0 0.00 0.00 0.00 59 1015.0
20240718180058 81 0 0.0 5.0 0.00 0.00 0.00 65 1015.0
20240718174602 80 0 0.0 2.0 0.00 0.00 0.00 64 1014.7
20240718173100 79 0 0.0 4.0 0.00 0.00 0.00 65 1014.5
20240718171603 79 0 0.0 9.0 0.00 0.00 0.00 67 1014.7
20240718170054 79 38 0.0 3.0 0.00 0.00 0.00 69 1014.6
20240718164555 78 0 0.0 5.0 0.00 0.00 0.00 70 1014.9
20240718163054 77 0 0.0 1.0 0.00 0.00 0.00 73 1015.0
20240718161556 76 0 0.0 5.0 0.00 0.00 0.00 73 1015.0
20240718160054 76 0 0.0 3.0 0.00 0.00 0.00 73 1014.8
20240718154556 76 0 1.0 7.0 0.00 0.00 0.00 72 1014.8
20240718153048 76 0 2.0 7.0 0.00 0.00 0.00 75 1014.7
20240718151557 75 0 0.0 4.0 0.00 0.00 0.00 77 1014.7
20240718150056 75 0 0.0 6.0 0.00 0.00 0.00 78 1014.9
20240718144554 75 325 0.0 4.0 0.00 0.00 0.00 83 1014.9
20240718143050 74 0 0.0 5.0 0.00 0.00 0.00 91 1014.7
20240718141552 73 0 0.0 7.0 0.00 0.00 0.00 96 1014.4
20240718140050 73 0 0.0 5.0 0.00 0.00 0.00 98 1014.3
20240718134555 72 0 0.0 4.0 0.00 0.00 0.00 98 1014.2
20240718133057 72 0 0.0 1.0 0.00 0.00 0.00 98 1014.1
20240718131550 72 0 0.0 3.0 0.00 0.00 0.00 99 1014.0
20240718130052 71 0 0.0 0.0 0.00 0.00 0.00 99 1014.0
20240718124554 71 0 0.0 0.0 0.00 0.00 0.00 99 1013.8
20240718123050 70 0 0.0 0.0 0.00 0.00 0.00 99 1013.7
20240718121551 70 0 0.0 0.0 0.00 0.00 0.00 99 1013.5
20240718120049 70 0 0.0 0.0 0.00 0.00 0.00 98 1013.4
20240718114554 70 0 0.0 0.0 0.00 0.00 0.00 99 1013.2
20240718113051 70 0 0.0 0.0 0.00 0.00 0.00 98 1013.0
20240718111549 70 0 0.0 0.0 0.00 0.00 0.00 99 1012.9
20240718110048 70 0 0.0 0.0 0.00 0.00 0.00 99 1012.8
20240718104556 70 0 0.0 1.0 0.00 0.00 0.00 98 1012.7
20240718103049 70 0 0.0 0.0 0.00 0.00 0.00 98 1012.5
20240718101547 70 0 0.0 0.0 0.00 0.00 0.00 98 1012.4
20240718100048 70 0 0.0 0.0 0.00 0.00 0.00 98 1012.2
20240718094549 70 0 0.0 0.0 0.00 0.00 0.00 98 1012.2
20240718093048 70 0 0.0 0.0 0.00 0.00 0.00 98 1012.1
20240718091549 70 0 0.0 0.0 0.00 0.00 0.00 98 1011.8
20240718090049 70 0 0.0 0.0 0.00 0.00 0.00 98 1011.8
20240718084602 70 0 0.0 0.0 0.00 0.00 0.00 98 1011.7
20240718083057 71 0 0.0 0.0 0.00 0.00 0.00 98 1011.4
20240718081548 71 0 0.0 0.0 0.00 0.00 0.00 98 1011.5
20240718080050 71 0 0.0 0.0 0.00 0.00 0.00 98 1011.5
20240718074605 71 0 0.0 0.0 0.00 0.00 0.00 98 1011.4
20240718073054 71 0 0.0 0.0 0.00 0.00 0.00 98 1011.1
20240718071551 71 0 0.0 0.0 0.00 0.00 0.00 98 1011.1
20240718070050 71 0 0.0 0.0 0.00 0.00 0.00 98 1011.1
20240718064551 71 0 0.0 0.0 0.00 0.00 0.00 98 1011.2
20240718063053 71 0 0.0 0.0 0.00 0.00 0.00 98 1011.0
20240718061601 72 0 0.0 0.0 0.00 0.00 0.00 98 1010.7
20240718060051 72 0 0.0 0.0 0.00 0.00 0.00 98 1010.7
20240718054548 72 0 0.0 0.0 0.00 0.00 0.00 98 1010.9
20240718053050 72 0 0.0 0.0 0.00 0.00 0.00 98 1011.1
20240718051549 72 0 0.0 0.0 0.00 0.00 0.00 98 1011.2
20240718050052 72 0 0.0 0.0 0.00 0.00 0.00 98 1011.3
20240718044549 72 0 0.0 0.0 0.00 0.00 0.00 98 1011.2
20240718043048 72 0 0.0 0.0 0.00 0.00 0.00 98 1011.1
20240718041549 72 0 0.0 0.0 0.00 0.00 0.00 97 1011.2
20240718040052 72 0 0.0 0.0 0.00 0.00 0.00 97 1011.0
20240718034551 72 0 0.0 0.0 0.00 0.00 0.00 97 1011.0
20240718033050 72 80 0.0 0.0 0.00 0.00 0.00 97 1010.9
20240718031548 72 0 0.0 3.0 0.00 0.00 0.00 96 1010.7
20240718030050 72 0 0.0 0.0 0.00 0.00 0.00 96 1011.2
20240718024549 72 0 0.0 4.0 0.00 0.00 0.00 96 1011.3
20240718023047 72 0 0.0 0.0 0.00 0.00 0.00 95 1012.0
20240718021550 72 0 0.0 0.0 0.00 0.00 0.00 95 1012.1
20240718020047 72 0 0.0 0.0 0.00 0.00 0.00 94 1012.2
20240718014551 72 0 0.0 5.0 0.00 0.00 0.00 94 1012.0
20240718013047 72 342 0.0 5.0 0.00 0.00 0.00 93 1011.6
20240718011552 73 0 0.0 4.0 0.00 0.00 0.00 92 1011.4
20240718010051 73 0 0.0 6.0 0.00 0.00 0.00 91 1011.9
20240718004548 74 360 3.0 10.0 0.00 0.00 0.00 90 1011.7
20240718003052 75 0 3.0 11.0 0.00 0.00 0.00 86 1011.5